Satellite: NCUBE2
Catalog number: 28897
Epoch time:      07290.68845782
Element set:    0379
Inclination:      098.1141 deg
RA of node:       185.0036 deg
Eccentricity:    0.0018236
Arg of perigee:   092.1146 deg
Mean anomaly:     268.2177 deg
Mean motion:   14.59758099 rev/day
Decay rate:       1.20e-06 rev/day^2
Epoch rev:           09724
Checksum:              335

Satellite: FCAL
Catalog number: 29667
Epoch time:      07291.73706424
Element set:     417
Inclination:      051.6319 deg
RA of node:       164.2651 deg
Eccentricity:    0.0013154
Arg of perigee:   110.6606 deg
Mean anomaly:     249.5669 deg
Mean motion:   15.92969622 rev/day
Decay rate:     2.0618e-04 rev/day^2
Epoch rev:            4766
Checksum:              317

Satellite: FALCON
Catalog number: 30776
Epoch time:      07291.89622471
Element set:     164
Inclination:      035.4331 deg
RA of node:       182.6862 deg
Eccentricity:    0.0000589
Arg of perigee:   031.2542 deg
Mean anomaly:     328.8208 deg
Mean motion:   15.02782946 rev/day
Decay rate:       2.42e-06 rev/day^2
Epoch rev:            3367
Checksum:              294

Satellite: MAST
Catalog number: 31126
Epoch time:      07291.70057102
Element set:     161
Inclination:      098.0702 deg
RA of node:       000.4271 deg
Eccentricity:    0.0095319
Arg of perigee:   003.8127 deg
Mean anomaly:     356.3765 deg
Mean motion:   14.53369942 rev/day
Decay rate:       1.15e-06 rev/day^2
Epoch rev:            2679
Checksum:              271

Satellite: CAPE1
Catalog number: 31130
Epoch time:      07290.71725154
Element set:     142
Inclination:      098.0711 deg
RA of node:       359.0505 deg
Eccentricity:    0.0103074
Arg of perigee:   007.9036 deg
Mean anomaly:     352.3747 deg
Mean motion:   14.51893219 rev/day
Decay rate:       2.42e-06 rev/day^2
Epoch rev:            2639
Checksum:              270

/EX





More information about the Keps mailing list